リニア-ヒル彗星

P/2008 QP20 ( LINEAR-Hill )

English version
Home page
Total 6,336 html files since Dec. 4, 1995
Updated on November 30, 2008

---------------------------------------------------------------------

・ プロフィール

発見日 2008年8月25日、9月23日
発見光度 20.7等、17.7等
発見者 Lincoln Laboratory Near-Earth Asteroid Research project, R. E. Hill (Catalina Sky Survey)

・ 写真集

・ 軌道要素

Epoch 2008 Oct. 21.0 TT = JDT 2454760.5
T 2008 Nov. 2.70576 TT                                  MPC
q   1.7230870            (2000.0)            P               Q
n   0.15117196     Peri.   72.04666     +0.79161686     -0.60613983
a   3.4899716      Node   325.14845     +0.49708150     +0.71219701
e   0.5062748      Incl.    7.74926     +0.35532059     +0.35407617
P   6.52

・ 星図

・ 光度変化

        m1 = 11.3 + 5 logΔ + 25 log r(t - 30)

---------------------------------------------------------------------

軌道要素はM.P.E.C. 2008-U20に掲載されたものです。
星図はステラナビゲータ Ver.8 (アストロアーツ) で作成したものです。
光度グラフはComet for Windowsで作成したものです。

---------------------------------------------------------------------

Copyright(C) 1995-2008 Seiichi Yoshida (comet@aerith.net). All rights reserved.